Wind_Speed
83 83 83 83 84 84 84 85 85 85 85 85 85 85 86 86 86 86 87 87 87 86 86 86 87 87 87 88 88 89 90 91 92 93 94 94 95 95 96 97 97 97 97 98 98 99 99 98 97 97 98 99
82 82 82 82 82 83 83 83 84 84 85 85 85 85 85 85 85 85 85 85 85 85 85 84 85 85 85 85 86 86 87 88 89 90 91 92 93 94 95 96 97 98 98 99 100 100 101 101 100 100 100 101
81 81 81 81 81 82 82 83 83 84 84 84 84 84 84 84 84 83 83 83 83 83 83 83 83 83 82 83 83 84 84 85 86 87 88 89 91 92 93 95 96 97 98 99 101 102 102 103 103 103 103 103
80 80 80 81 81 82 82 83 83 83 84 83 83 83 82 82 82 81 81 81 81 81 80 80 80 80 80 80 80 80 81 81 82 83 84 85 87 89 91 93 94 96 97 99 100 101 102 103 104 105 106 106
79 79 80 80 81 82 82 82 82 82 82 82 82 81 81 80 80 79 79 79 78 78 78 78 78 78 78 78 77 77 78 78 78 79 81 82 83 85 88 90 92 94 95 97 99 101 102 103 105 106 107 108
78 78 79 79 80 80 80 80 80 80 80 80 80 80 80 79 78 78 77 76 76 75 75 74 74 74 75 74 74 74 74 75 75 77 78 79 80 82 84 86 88 91 93 95 97 99 101 103 104 106 107 109
77 77 77 78 78 78 78 78 78 78 78 78 78 78 77 77 76 75 74 74 73 73 72 71 71 71 71 71 71 71 71 72 73 74 75 76 78 79 81 83 85 87 90 92 94 96 99 101 103 105 106 108
75 75 75 75 75 75 74 74 74 74 74 74 74 74 74 73 72 72 71 70 70 70 69 69 68 68 68 69 69 70 70 70 71 71 73 74 76 77 79 81 83 85 87 89 92 94 96 99 101 103 105 107
72 72 72 71 71 71 70 69 67 66 66 66 66 66 66 66 65 65 65 65 64 64 64 64 64 64 65 66 66 67 68 68 69 70 71 72 74 75 77 79 81 83 85 87 89 92 94 97 99 101 104 106
70 69 68 68 67 65 62 59 57 56 55 55 54 54 54 54 54 54 54 55 55 55 56 56 56 57 58 59 60 61 63 64 65 66 67 68 70 72 73 75 77 80 82 84 87 90 92 95 97 100 102 104
68 66 65 62 59 55 52 51 50 48 47 46 45 45 45 45 45 45 45 46 47 47 48 49 49 50 51 52 54 55 57 58 59 61 62 63 65 66 69 71 73 75 78 81 83 86 89 92 95 98 100 102
63 60 58 54 51 49 48 48 47 47 46 45 44 44 44 44 44 44 44 45 45 46 46 47 48 49 49 50 51 53 54 55 56 57 59 60 61 63 65 67 69 71 73 76 79 82 85 89 92 95 98 100
52 50 48 47 47 47 48 48 48 47 47 46 46 45 45 45 45 45 46 46 47 48 48 49 49 50 50 51 52 53 54 55 56 57 58 59 60 62 64 65 67 69 71 73 75 78 81 84 88 91 94 97
43 42 43 44 46 47 47 48 48 47 46 46 45 45 45 46 46 46 47 47 48 48 49 50 50 51 51 52 53 55 56 56 58 59 60 60 61 63 64 66 67 69 70 72 74 76 78 81 84 87 90 93
41 42 43 45 46 47 47 47 47 46 45 45 45 45 46 46 47 47 47 48 48 49 50 51 52 52 53 54 55 56 57 58 59 60 61 62 63 64 65 67 68 69 71 73 74 76 78 80 82 84 86 89
43 43 44 45 46 46 46 46 46 46 46 45 46 46 47 47 48 49 49 50 51 51 52 53 54 55 56 56 57 59 60 61 62 63 64 64 65 66 67 68 70 71 72 74 75 77 78 80 82 84 85 87
44 44 45 45 45 46 46 46 47 47 46 47 48 48 49 50 51 51 52 53 53 54 55 56 57 58 59 59 60 61 62 63 64 65 66 66 67 68 69 70 72 73 74 75 77 79 80 82 84 85 86 88
45 45 45 45 45 46 46 47 48 48 49 49 50 51 52 53 54 55 55 56 56 57 58 59 60 61 62 62 63 64 65 65 66 67 68 69 70 71 72 73 74 75 77 78 80 82 83 85 87 88 89 90
45 45 45 46 47 47 48 49 50 51 51 53 53 54 55 56 57 58 59 59 60 61 61 62 63 65 65 66 66 67 68 68 69 70 71 72 73 74 75 77 78 79 80 82 83 85 86 88 90 91 92 93
46 46 47 48 49 49 50 51 52 53 54 56 56 57 59 60 61 63 64 64 64 65 65 65 66 67 68 69 70 70 71 72 73 74 75 76 77 78 80 81 82 84 85 86 87 89 90 91 93 94 95 96
48 49 49 50 51 52 53 53 55 56 57 59 60 61 62 63 65 66 68 68 69 69 69 69 70 71 72 72 73 74 74 75 77 78 78 80 81 82 83 85 87 88 89 90 91 92 94 95 96 97 99 99
51 52 52 53 53 54 56 57 58 59 61 62 63 65 66 67 69 70 71 73 73 73 74 74 74 74 75 75 76 77 78 79 81 81 82 84 86 87 88 89 91 93 93 94 95 96 98 99 99 100 101 102
53 54 55 56 57 58 59 60 61 62 64 66 67 69 70 72 73 74 75 76 77 78 78 78 77 77 78 78 79 80 81 83 84 85 87 88 89 91 92 93 95 96 97 98 98 100 101 102 103 104 105 105
55 57 58 59 60 61 62 63 64 66 67 69 71 72 74 76 77 78 79 80 81 81 81 81 81 81 81 82 82 83 85 86 88 90 91 93 94 95 96 98 99 100 100 101 102 104 105 105 106 107 108 108
59 60 61 62 64 65 66 67 68 69 70 72 73 75 77 79 80 81 83 83 83 83 83 83 83 84 84 85 86 86 88 90 92 94 96 98 99 99 101 102 104 105 105 105 106 107 108 108 110 110 110 110
62 63 64 65 67 68 69 71 72 72 74 75 76 78 80 82 83 84 85 86 85 85 85 85 86 87 88 89 89 90 92 94 96 98 100 102 103 104 105 106 108 110 110 109 110 111 111 111 112 112 112 112
65 66 67 68 69 71 72 74 75 77 78 79 80 81 83 85 86 87 87 87 87 87 88 89 89 91 92 93 94 95 96 98 100 102 104 106 107 109 109 110 112 114 114 113 113 113 113 113 114 114 113 113
68 70 71 72 73 74 75 77 79 80 82 83 83 85 86 88 88 89 89 89 89 89 90 92 93 94 96 97 99 101 102 103 105 106 108 109 111 112 113 114 116 117 117 116 115 115 114 114 114 115 114 114
71 73 74 75 76 78 79 81 83 84 85 87 88 88 89 90 90 90 90 91 91 92 93 95 96 97 99 101 103 105 107 108 109 110 112 113 114 115 116 117 118 118 118 117 116 115 114 114 114 114 114 114
75 76 78 79 81 83 84 85 87 88 90 91 92 93 94 93 92 92 92 93 94 96 97 98 100 102 103 106 108 109 110 111 113 114 115 116 117 117 118 118 118 118 119 118 116 115 115 115 114 114 114 114
78 79 81 83 85 87 88 90 91 93 95 96 97 97 98 97 95 94 94 95 97 99 101 102 104 106 107 109 111 112 113 115 116 117 118 119 119 118 118 118 117 116 117 117 115 115 115 115 113 113 113 113
Wind_Direction
279 278 278 278 277 277 277 276 276 275 274 274 273 272 272 271 271 271 270 269 268 267 266 265 264 263 261 260 259 258 256 255 254 253 253 252 252 251 251 250 250 249 248 247 246 245 243 242 241 240 240 240
279 279 278 278 278 277 277 276 276 276 275 275 274 273 273 272 272 271 271 270 270 269 268 267 266 265 263 262 261 259 258 256 255 254 253 252 251 250 249 249 248 248 248 247 246 246 244 242 240 239 239 239
280 279 279 278 277 277 276 276 275 275 275 275 274 274 274 273 273 272 272 271 270 270 269 268 267 266 265 263 262 261 260 258 257 255 254 252 251 250 249 248 247 246 246 246 246 245 245 244 241 239 238 238
281 281 280 279 278 277 276 276 276 276 276 276 276 276 275 274 274 273 272 272 271 270 270 269 268 267 266 265 264 262 261 260 258 257 255 254 252 251 249 248 246 245 245 244 244 244 244 244 243 241 239 238
281 281 280 279 279 279 278 278 278 278 278 278 278 277 276 276 275 274 273 272 272 271 270 270 269 268 267 266 265 263 262 261 259 258 257 255 253 252 250 249 247 246 245 244 243 243 243 243 243 242 240 238
281 280 280 280 280 280 280 280 280 280 280 279 278 278 277 276 275 274 274 273 272 271 270 270 269 268 267 266 265 264 263 261 260 258 257 256 254 253 251 250 248 247 245 244 243 242 242 242 242 242 241 240
281 281 281 281 281 281 281 281 281 281 280 279 278 277 276 275 275 274 274 273 272 271 270 269 268 267 266 265 264 263 262 261 259 258 257 256 255 253 252 250 249 247 246 245 243 242 242 241 241 241 241 241
281 281 281 281 281 282 282 281 281 281 280 279 278 276 276 275 274 274 273 272 272 271 269 268 267 266 265 264 263 262 261 260 259 258 257 256 255 254 253 252 250 248 247 245 244 243 242 241 241 240 240 240
281 281 282 282 282 283 283 283 282 282 280 279 278 276 275 274 274 273 273 272 271 271 270 269 267 266 265 263 263 262 261 260 259 258 257 256 256 255 254 253 252 250 249 247 246 244 242 241 241 240 240 239
282 282 282 282 282 283 283 283 283 283 282 281 279 278 276 275 274 274 273 273 272 272 271 270 269 267 265 264 263 262 261 260 259 258 257 257 256 256 255 254 254 253 251 250 248 247 244 242 241 240 240 239
283 282 281 281 280 280 280 281 282 283 283 282 281 280 278 277 276 276 275 274 273 272 272 271 269 268 266 265 264 263 262 261 260 259 258 257 256 255 255 254 254 253 253 252 251 249 247 245 243 241 240 239
283 281 279 278 277 277 278 280 281 283 283 283 282 281 280 278 277 276 275 274 273 272 271 270 270 269 267 266 265 264 263 262 261 260 258 257 256 255 254 254 253 253 253 252 252 251 250 248 247 244 242 240
282 279 276 275 276 277 279 280 281 282 282 282 281 280 279 278 277 275 274 274 273 272 271 270 270 269 268 268 267 266 265 264 263 262 260 259 258 257 256 255 254 253 253 252 252 252 251 250 249 248 246 243
280 277 275 276 277 279 280 280 280 280 280 280 279 279 278 277 276 276 275 275 274 273 273 272 271 270 270 269 269 268 267 266 265 264 263 262 261 260 259 258 257 256 255 255 253 252 252 252 251 250 249 247
279 278 278 278 279 279 279 279 279 278 278 278 278 278 278 278 277 277 276 276 275 275 274 273 273 272 271 270 269 269 268 267 267 266 265 265 264 263 263 262 261 260 260 259 257 256 255 254 252 251 251 250
280 280 279 279 279 279 278 278 278 278 278 278 278 278 278 278 278 277 277 276 275 275 274 273 272 272 271 270 269 269 268 268 268 267 267 267 266 266 265 265 265 264 264 263 262 261 259 257 256 254 252 251
281 280 279 278 278 278 279 279 279 279 280 279 279 279 279 279 278 277 277 276 276 275 275 274 274 273 273 272 271 271 270 270 270 270 270 270 269 269 269 268 268 267 266 266 265 264 263 261 259 257 255 254
280 279 279 278 279 279 280 281 282 282 282 282 282 281 281 281 280 279 279 279 278 278 278 277 277 277 276 275 275 274 274 273 273 272 272 272 271 270 269 269 268 267 266 265 264 263 263 262 261 259 258 256
280 280 281 281 281 282 283 284 284 285 284 284 284 284 283 283 283 283 282 281 281 280 279 279 278 278 277 276 275 274 274 273 272 272 271 270 270 269 268 268 267 266 265 265 264 263 262 261 260 259 258 257
279 280 281 283 284 284 285 285 285 285 285 285 285 285 285 285 284 284 284 283 282 281 280 279 278 277 276 275 274 273 272 272 271 271 270 270 269 269 268 268 267 266 265 265 264 263 262 261 260 259 258 257
280 280 281 283 284 285 285 286 285 285 286 286 286 286 286 285 285 284 283 282 281 280 279 278 277 276 276 275 274 274 273 273 272 272 271 271 270 270 269 269 268 267 266 265 264 264 262 261 260 259 258 257
282 283 283 284 284 285 285 285 286 286 287 287 287 287 287 286 285 284 283 282 281 280 278 277 276 275 275 275 275 274 274 274 274 273 273 273 272 271 271 270 269 268 267 265 264 263 262 261 260 259 258 257
282 282 283 284 284 284 284 284 286 286 287 287 287 287 287 286 286 285 284 283 282 281 280 278 278 277 276 276 276 276 276 276 276 276 275 274 274 273 272 271 270 269 267 266 265 264 263 261 260 259 258 257
281 281 282 283 283 283 284 285 285 286 287 287 287 288 288 287 287 286 285 284 283 282 281 280 280 279 279 278 278 278 278 279 278 278 278 277 276 275 275 274 272 270 268 267 267 265 263 262 260 259 258 257
281 281 282 282 283 285 285 285 286 286 286 287 287 287 288 288 287 287 286 285 284 283 282 281 281 280 280 281 281 281 280 280 280 280 280 279 278 277 276 275 274 272 270 268 267 266 264 263 261 259 258 258
281 281 282 283 285 285 286 286 286 286 286 287 287 288 288 289 289 289 288 286 285 284 283 282 282 282 282 282 282 281 281 281 281 281 280 280 279 277 276 275 274 272 270 268 267 265 264 263 262 261 260 259
281 281 283 284 284 284 285 285 286 287 287 288 288 289 290 291 291 290 289 287 286 285 285 284 284 284 284 284 284 283 282 282 281 280 280 279 278 277 276 275 273 271 270 268 267 265 265 264 263 262 261 260
282 283 284 284 284 284 285 286 287 287 288 288 289 289 290 291 291 290 289 287 286 285 285 285 285 285 285 285 285 285 284 283 282 281 280 278 277 276 275 274 272 271 269 268 267 267 266 265 265 264 263 262
285 285 286 286 286 286 287 287 288 288 288 289 289 290 291 291 291 290 289 288 287 286 286 286 286 286 286 286 286 285 284 283 282 281 280 278 276 275 274 272 271 271 270 269 269 268 267 266 265 265 264 263
286 286 287 287 287 288 288 289 289 290 290 291 292 292 292 292 291 290 289 288 287 287 287 287 287 287 287 287 286 286 285 284 283 281 279 277 275 274 273 272 271 271 271 270 269 269 268 267 266 265 265 264
287 287 287 287 288 289 290 290 291 292 292 293 293 293 293 292 291 290 289 288 288 288 288 288 288 288 288 287 287 286 286 285 283 281 279 277 275 273 273 272 272 271 271 270 269 268 267 267 266 265 264 264
Height
10659 10656 10654 10652 10650 10648 10647 10645 10644 10643 10643 10642 10642 10642 10642 10641 10641 10641 10641 10642 10643 10644 10646 10647 10647 10648 10650 10651 10652 10653 10655 10656 10658 10660 10662 10664 10666 10669 10672 10675 10678 10680 10683 10686 10688 10690 10693 10698 10704 10707 10708 10710
10648 10647 10644 10642 10640 10638 10637 10635 10633 10632 10631 10631 10631 10631 10631 10630 10630 10630 10630 10630 10630 10632 10633 10634 10635 10636 10638 10639 10640 10641 10642 10644 10646 10648 10650 10652 10655 10657 10660 10662 10665 10667 10670 10672 10675 10676 10679 10684 10690 10694 10696 10698
10637 10636 10634 10632 10630 10629 10627 10625 10624 10622 10621 10620 10620 10620 10620 10620 10619 10619 10619 10619 10619 10620 10621 10622 10622 10623 10625 10626 10627 10628 10630 10632 10633 10635 10638 10640 10642 10644 10647 10649 10651 10654 10656 10659 10661 10663 10666 10669 10674 10679 10683 10685
10626 10625 10623 10621 10619 10618 10616 10615 10614 10613 10611 10610 10610 10609 10609 10609 10609 10608 10608 10608 10608 10608 10609 10610 10610 10611 10612 10614 10615 10616 10618 10620 10621 10623 10625 10627 10629 10631 10633 10635 10638 10641 10643 10646 10648 10651 10653 10655 10659 10663 10668 10672
10616 10614 10612 10610 10608 10606 10605 10604 10603 10603 10601 10600 10599 10598 10597 10597 10597 10597 10597 10597 10597 10598 10598 10599 10599 10599 10600 10601 10603 10604 10606 10607 10609 10610 10611 10614 10616 10617 10619 10622 10624 10628 10631 10633 10636 10638 10640 10643 10645 10648 10653 10658
10607 10605 10603 10601 10598 10597 10596 10594 10592 10592 10591 10589 10587 10586 10585 10585 10585 10585 10586 10586 10586 10586 10587 10588 10588 10588 10588 10589 10590 10592 10593 10595 10596 10597 10598 10600 10602 10604 10606 10608 10611 10614 10617 10620 10623 10625 10627 10630 10633 10635 10639 10643
10598 10596 10594 10592 10590 10588 10587 10585 10583 10581 10580 10578 10576 10575 10574 10574 10574 10574 10574 10574 10574 10574 10575 10576 10577 10577 10577 10577 10578 10579 10581 10582 10583 10584 10585 10587 10589 10590 10592 10594 10597 10600 10603 10606 10609 10612 10615 10617 10620 10623 10626 10629
10590 10587 10585 10583 10581 10579 10577 10576 10574 10571 10569 10567 10566 10565 10564 10563 10563 10563 10563 10563 10563 10563 10563 10565 10566 10566 10566 10566 10567 10568 10569 10570 10572 10573 10574 10575 10577 10578 10579 10581 10583 10586 10588 10591 10594 10598 10601 10604 10607 10610 10612 10615
10582 10579 10577 10574 10572 10570 10568 10566 10564 10562 10560 10557 10556 10555 10554 10554 10554 10554 10553 10553 10553 10553 10553 10554 10555 10556 10556 10556 10557 10558 10559 10560 10561 10562 10564 10565 10566 10568 10569 10569 10571 10573 10575 10578 10580 10583 10587 10590 10593 10596 10599 10601
10573 10571 10568 10566 10564 10562 10560 10558 10556 10554 10551 10549 10548 10546 10546 10545 10545 10545 10545 10545 10544 10544 10544 10545 10546 10547 10547 10547 10548 10549 10549 10550 10552 10553 10554 10556 10557 10558 10559 10559 10560 10562 10563 10565 10567 10569 10572 10575 10579 10582 10585 10588
10563 10561 10559 10558 10556 10555 10553 10551 10549 10547 10545 10543 10541 10540 10539 10538 10538 10538 10538 10538 10537 10537 10537 10537 10538 10538 10539 10539 10540 10540 10541 10542 10543 10544 10545 10547 10548 10549 10549 10550 10551 10552 10552 10553 10555 10556 10558 10561 10564 10568 10571 10575
10553 10552 10550 10549 10549 10548 10547 10545 10543 10541 10539 10537 10536 10534 10533 10533 10532 10532 10532 10531 10531 10531 10531 10531 10531 10531 10531 10532 10532 10532 10533 10534 10535 10536 10537 10538 10539 10540 10540 10541 10541 10542 10543 10543 10544 10545 10546 10548 10550 10553 10557 10561
10544 10544 10543 10542 10542 10541 10540 10539 10537 10535 10533 10532 10530 10529 10528 10527 10526 10526 10526 10525 10525 10524 10524 10524 10524 10524 10524 10524 10524 10524 10524 10525 10525 10526 10527 10529 10530 10530 10531 10531 10532 10533 10533 10534 10535 10535 10535 10536 10538 10540 10543 10547
10538 10538 10538 10537 10536 10535 10534 10532 10531 10529 10528 10526 10525 10523 10522 10521 10521 10520 10520 10519 10519 10518 10517 10517 10517 10516 10516 10516 10516 10515 10515 10515 10516 10516 10517 10518 10519 10520 10520 10521 10521 10523 10523 10523 10524 10525 10525 10526 10527 10528 10530 10532
10534 10533 10532 10531 10530 10529 10528 10526 10524 10523 10522 10521 10519 10518 10517 10516 10515 10514 10514 10513 10512 10511 10510 10510 10509 10509 10509 10508 10508 10507 10506 10506 10506 10507 10507 10508 10509 10509 10509 10510 10510 10511 10512 10512 10512 10514 10514 10515 10516 10517 10518 10519
10529 10528 10527 10525 10524 10523 10521 10520 10518 10517 10516 10515 10513 10512 10511 10510 10509 10508 10507 10507 10506 10505 10504 10503 10502 10501 10501 10501 10500 10499 10499 10498 10498 10498 10498 10498 10499 10499 10499 10500 10500 10500 10501 10501 10501 10501 10502 10503 10504 10504 10506 10506
10524 10522 10521 10519 10518 10516 10514 10513 10511 10511 10510 10508 10507 10506 10504 10503 10502 10501 10500 10500 10499 10498 10497 10496 10495 10494 10493 10493 10492 10491 10491 10490 10490 10489 10489 10489 10490 10490 10489 10489 10489 10489 10490 10489 10489 10489 10489 10490 10490 10491 10492 10493
10518 10516 10514 10513 10511 10509 10507 10506 10504 10503 10502 10501 10500 10499 10497 10496 10495 10494 10493 10492 10491 10490 10489 10488 10487 10485 10485 10484 10484 10483 10482 10482 10481 10480 10480 10479 10479 10479 10479 10478 10477 10477 10478 10477 10476 10476 10476 10476 10476 10477 10478 10478
10511 10509 10507 10505 10504 10503 10501 10499 10497 10496 10494 10493 10492 10491 10489 10488 10486 10485 10484 10484 10483 10482 10481 10480 10479 10477 10476 10475 10474 10474 10472 10472 10471 10470 10470 10468 10468 10468 10467 10467 10466 10465 10465 10464 10463 10463 10463 10462 10462 10463 10463 10464
10504 10503 10501 10499 10497 10495 10494 10492 10490 10488 10487 10485 10484 10483 10481 10480 10478 10476 10475 10474 10474 10473 10471 10471 10470 10467 10466 10465 10464 10463 10462 10461 10460 10459 10459 10457 10456 10456 10455 10454 10453 10452 10452 10452 10450 10449 10449 10448 10448 10448 10448 10449
10497 10495 10494 10492 10490 10488 10486 10484 10483 10481 10479 10477 10476 10475 10473 10472 10470 10468 10467 10465 10464 10463 10461 10460 10459 10457 10455 10454 10453 10452 10451 10450 10448 10447 10447 10445 10443 10444 10443 10441 10439 10438 10438 10438 10437 10435 10433 10433 10434 10434 10433 10435
10489 10487 10486 10484 10482 10480 10478 10476 10474 10472 10471 10469 10468 10466 10465 10463 10461 10459 10457 10454 10453 10451 10450 10449 10448 10447 10445 10443 10442 10440 10439 10437 10435 10434 10434 10432 10430 10429 10429 10427 10424 10423 10422 10423 10422 10420 10417 10417 10418 10418 10417 10419
10481 10479 10477 10475 10473 10472 10470 10468 10466 10464 10463 10461 10459 10457 10455 10452 10450 10448 10446 10443 10441 10439 10438 10436 10435 10434 10433 10431 10430 10428 10426 10424 10422 10420 10419 10417 10416 10413 10412 10411 10409 10407 10406 10406 10405 10403 10401 10401 10401 10401 10401 10402
10473 10471 10469 10467 10465 10463 10461 10460 10458 10456 10454 10451 10449 10446 10444 10442 10439 10437 10434 10431 10429 10427 10425 10423 10421 10420 10418 10417 10416 10415 10412 10409 10407 10404 10402 10400 10399 10398 10395 10393 10391 10389 10389 10390 10388 10385 10384 10384 10383 10383 10384 10385
10464 10462 10460 10458 10455 10454 10451 10449 10448 10446 10444 10442 10439 10436 10433 10430 10427 10425 10421 10418 10416 10414 10411 10409 10407 10405 10403 10402 10401 10400 10397 10395 10391 10388 10385 10383 10382 10380 10379 10376 10372 10369 10371 10372 10370 10366 10367 10366 10364 10365 10367 10368
10455 10453 10451 10449 10446 10444 10441 10438 10436 10435 10433 10431 10428 10425 10421 10418 10414 10411 10407 10403 10401 10399 10396 10394 10392 10390 10388 10386 10385 10385 10382 10379 10376 10372 10368 10365 10363 10361 10360 10359 10353 10348 10350 10353 10351 10348 10349 10348 10345 10347 10350 10350
10446 10443 10441 10440 10437 10434 10431 10428 10425 10423 10421 10419 10416 10413 10409 10405 10401 10398 10393 10389 10386 10383 10381 10378 10376 10374 10371 10369 10368 10367 10365 10362 10359 10355 10351 10347 10345 10342 10340 10339 10334 10328 10329 10332 10331 10330 10332 10331 10328 10329 10331 10332
10436 10434 10431 10429 10426 10423 10421 10418 10415 10412 10408 10405 10404 10401 10398 10394 10390 10385 10381 10376 10372 10369 10367 10364 10361 10359 10356 10352 10349 10347 10346 10343 10339 10336 10332 10328 10324 10322 10320 10318 10314 10310 10309 10311 10310 10310 10313 10314 10311 10310 10310 10312
10425 10422 10419 10416 10413 10410 10408 10405 10402 10399 10396 10392 10389 10387 10384 10381 10377 10372 10368 10363 10358 10355 10352 10349 10346 10343 10340 10336 10332 10329 10326 10323 10319 10315 10311 10307 10303 10301 10298 10296 10295 10292 10289 10289 10290 10291 10294 10293 10292 10293 10291 10291
10414 10410 10407 10403 10400 10397 10394 10391 10387 10384 10381 10377 10373 10370 10367 10364 10361 10358 10354 10349 10344 10340 10336 10333 10329 10326 10323 10318 10314 10310 10306 10302 10297 10293 10289 10285 10281 10279 10277 10274 10276 10275 10269 10268 10272 10272 10271 10271 10272 10275 10273 10272
10402 10399 10396 10392 10388 10384 10380 10377 10373 10368 10365 10361 10358 10355 10351 10347 10345 10342 10339 10335 10330 10325 10320 10316 10313 10309 10305 10300 10295 10290 10285 10279 10273 10269 10265 10261 10259 10258 10257 10255 10256 10256 10249 10247 10252 10251 10248 10250 10253 10255 10255 10253